Corbin, Kentucky, United States (40701)
Lat: 36.95N, Lon: 84.1W
Wx Zone: KYZ085
Local Info
Past Weather Observations for Today

NOTE: This archive is for the closest National Weather Service station to Corbin. Information may differ from the station used for current weather conditions.

Click here for Long-term Archive

Time Weather Temperature Dewpoint Humidity Pressure Winds Precip Visibility
16:53
Overcast
64°F / 18°C 46°F / 8°C 52% 29.89 in
(1012 mb)
WNW 10.4 mph
(WNW 17 kph)
- 10SM
15:53
Overcast
61°F / 16°C 46°F / 8°C 59% 29.89 in
(1012 mb)
NW 11.5 mph
(NW 19 kph)
- 10SM
14:53
Mostly Cloudy
63°F / 17°C 46°F / 8°C 56% 29.89 in
(1012 mb)
W 12.7 mph
(W 20 kph)
- 10SM
13:53
Overcast
61°F / 16°C 46°F / 8°C 59% 29.92 in
(1013 mb)
NW 11.5 mph
(NW 19 kph)
- 10SM
12:53
Overcast
63°F / 17°C 46°F / 8°C 56% 29.92 in
(1013 mb)
W 11.5 mph
(W 19 kph)
- 10SM
11:53
Overcast
61°F / 16°C 48°F / 9°C 63% 29.95 in
(1014 mb)
NW 13.8 mph
(NW 22 kph)
- 10SM
10:53
Overcast
61°F / 16°C 50°F / 10°C 68% 29.95 in
(1014 mb)
WNW 10.4 mph
(WNW 17 kph)
- 10SM
10:14
Overcast
61°F / 16°C 52°F / 11°C 72% 29.95 in
(1014 mb)
W 8.1 mph
(W 13 kph)
- 10SM
09:53
Overcast
59°F / 15°C 52°F / 11°C 77% 29.95 in
(1014 mb)
WNW 9.2 mph
(WNW 15 kph)
- 10SM
09:45
Mostly Cloudy
57°F / 14°C 52°F / 11°C 82% 29.95 in
(1014 mb)
NW 9.2 mph
(NW 15 kph)
- 10SM
09:19
Partly Cloudy
59°F / 15°C 54°F / 12°C 82% 29.95 in
(1014 mb)
NW 6.9 mph
(NW 11 kph)
- 10SM
09:01
Overcast
57°F / 14°C 54°F / 12°C 88% 29.92 in
(1013 mb)
WNW 8.1 mph
(WNW 13 kph)
- 10SM
08:53
Overcast
57°F / 14°C 52°F / 11°C 82% 29.92 in
(1013 mb)
W 6.9 mph
(W 11 kph)
- 10SM
07:53
Overcast
55°F / 13°C 54°F / 12°C 94% 29.92 in
(1013 mb)
W 5.8 mph
(W 9 kph)
- 9SM
07:30
Overcast
55°F / 13°C 54°F / 12°C 94% 29.92 in
(1013 mb)
W 3.5 mph
(W 6 kph)
- 8SM
07:14
Overcast
55°F / 13°C 55°F / 13°C 100% 29.92 in
(1013 mb)
Calm - 7SM
06:53
Overcast
55°F / 13°C 54°F / 12°C 94% 29.92 in
(1013 mb)
W 4.6 mph
(W 7 kph)
- 7SM
06:49
Overcast
55°F / 13°C 54°F / 12°C 94% 29.92 in
(1013 mb)
W 3.5 mph
(W 6 kph)
- 8SM
06:17
Overcast
54°F / 12°C 52°F / 11°C 94% 29.92 in
(1013 mb)
NW 5.8 mph
(NW 9 kph)
- 7SM
05:53
Overcast
54°F / 12°C 54°F / 12°C 100% 29.92 in
(1013 mb)
NNW 6.9 mph
(NNW 11 kph)
- 9SM
05:51
Overcast
54°F / 12°C 54°F / 12°C 100% 29.92 in
(1013 mb)
NNW 6.9 mph
(NNW 11 kph)
- 9SM
05:10
Overcast
Fog And Mist
55°F / 13°C 54°F / 12°C 94% 29.92 in
(1013 mb)
NW 6.9 mph
(NW 11 kph)
- 5SM
04:53
Overcast
Light Rain
55°F / 13°C 54°F / 12°C 94% 29.92 in
(1013 mb)
NW 4.6 mph
(NW 7 kph)
- 6SM
04:12
Overcast
57°F / 14°C 55°F / 13°C 94% 29.92 in
(1013 mb)
NNW 4.6 mph
(NNW 7 kph)
- 8SM
03:53
Overcast
57°F / 14°C 55°F / 13°C 94% 29.92 in
(1013 mb)
NW 3.5 mph
(NW 6 kph)
- 10SM
03:35
Overcast
57°F / 14°C 55°F / 13°C 94% 29.92 in
(1013 mb)
NW 3.5 mph
(NW 6 kph)
- 9SM
03:19
Overcast
Light Rain
57°F / 14°C 55°F / 13°C 94% 29.89 in
(1012 mb)
N 3.5 mph
(N 6 kph)
- 6SM
02:53
Overcast
57°F / 14°C 55°F / 13°C 94% 29.92 in
(1013 mb)
NNW 4.6 mph
(NNW 7 kph)
- 7SM
02:35
Overcast
57°F / 14°C 55°F / 13°C 94% 29.92 in
(1013 mb)
NW 4.6 mph
(NW 7 kph)
- 7SM
01:53
Overcast
57°F / 14°C 55°F / 13°C 94% 29.92 in
(1013 mb)
NW 4.6 mph
(NW 7 kph)
- 8SM
00:53
Overcast
57°F / 14°C 57°F / 14°C 100% 29.92 in
(1013 mb)
NNW 4.6 mph
(NNW 7 kph)
- 10SM
Time Weather Temperature Dewpoint Humidity Pressure Winds Precip Visibility


Weather for websites

WeatherForYou.com, LLC is not responsible for any damages or problems caused by this service. Current weather conditions are obtained from the closest station including government and personal stations which may have varying degrees of accuracy. Weather forecasts are derived from the NOAA NDFD. Like all things, this site belongs to Jesus Christ... He just trusts us to maintain it. If you have any questions or comments email webmaster@weatherforyou.com

Copyright © 2016, WeatherForYou.com LLC. All rights reserved.